Weather History for Jackson, KY

Change the Weather History Date:

Wednesday, March 26, 2014

  Actual Average Record
Temperature  
Mean Temperature 31 °F 51 °F  
Max Temperature 42 °F 61 °F 81 °F (2007)
Min Temperature 20 °F 40 °F 20 °F (2014)
Degree Days  
Heating Degree Days 34 15  
Month to date heating degree days 587 485  
Since 1 July heating degree days 4188 3785  
Cooling Degree Days 0 0  
Month to date cooling degree days 0 0  
Year to date cooling degree days 0 0  
Moisture  
Dew Point 12 °F    
Average Humidity 50    
Maximum Humidity 68    
Minimum Humidity 32    
Precipitation  
Precipitation 0.00 in 0.13 in 0.80 in (2002)
Month to date precipitation 3.83 3.46  
Year to date precipitation 11.45 10.82  
Snow  
Snow 0.00 in 0.10 in - ()
Month to date snowfall 9.6 2.6  
Since 1 July snowfall 36.6 22.2  
Snow Depth T in    
Sea Level Pressure  
Sea Level Pressure 30.30 in    
Wind  
Wind Speed 4 mph (NW)    
Max Wind Speed 10 mph    
Max Gust Speed 18 mph    
Visibility 10 miles    
Events      
T = Trace of Precipitation, MM = Missing Value Source: NWS Daily Summary

Daily Weather History Graph

Daily Weather History Graph

Search for Another Location

Airport:

Trip Planner

Search our weather history database for the weather conditions in past years. The results will help you decide how hot, cold, wet, or windy it might be!

Date:

Astronomy

Mar. 26, 2014 Rise Set
Actual Time 7:27 AM EDT 7:50 PM EDT
Civil Twilight 7:01 AM EDT 8:16 PM EDT
Nautical Twilight 6:30 AM EDT 8:47 PM EDT
Astronomical Twilight 5:59 AM EDT 9:19 PM EDT
Moon 4:30 AM EDT 3:32 PM EDT
Length of Visible Light 13h 15m
Length of Day
12h 22m
Waning Crescent, 22% of the Moon is Illuminated
Mar 26
Waning Crescent
Mar 30
New
Apr 7
First Quarter
Apr 15
Full
Apr 22
Last Quarter

Hourly Weather History & Observations

Time (EDT) Temp. Windchill Dew Point Humidity Pressure Visibility Wind Dir Wind Speed Gust Speed Precip Events Conditions
12:53 AM 25.0 °F 15.5 °F 15.1 °F 66% 30.20 in 10.0 mi WNW 9.2 mph - N/A   Mostly Cloudy
1:53 AM 25.0 °F 17.1 °F 14.0 °F 63% 30.21 in 10.0 mi WNW 6.9 mph - N/A   Overcast
2:53 AM 25.0 °F 18.1 °F 12.9 °F 60% 30.22 in 10.0 mi NW 5.8 mph - N/A   Overcast
3:53 AM 24.1 °F 16.0 °F 12.0 °F 60% 30.24 in 10.0 mi NW 6.9 mph - N/A   Mostly Cloudy
4:53 AM 23.0 °F 15.8 °F 10.9 °F 60% 30.24 in 10.0 mi NW 5.8 mph - N/A   Partly Cloudy
5:53 AM 21.9 °F 17.2 °F 10.0 °F 60% 30.26 in 10.0 mi Variable 3.5 mph - N/A   Partly Cloudy
6:53 AM 21.0 °F 13.4 °F 10.0 °F 63% 30.29 in 10.0 mi WNW 5.8 mph - N/A   Clear
7:53 AM 21.0 °F 14.6 °F 10.9 °F 65% 30.32 in 10.0 mi NW 4.6 mph - N/A   Partly Cloudy
8:22 AM 21.9 °F 17.2 °F 12.0 °F 66% 30.28 in 10.0 mi NNW 3.5 mph - N/A   Mostly Cloudy
8:31 AM 21.9 °F 17.2 °F 12.0 °F 66% 30.29 in 10.0 mi Variable 3.5 mph - N/A   Scattered Clouds
8:53 AM 24.1 °F - 12.9 °F 62% 30.35 in 10.0 mi Calm Calm - N/A   Clear
9:53 AM 26.1 °F 20.5 °F 14.0 °F 60% 30.36 in 10.0 mi Variable 4.6 mph - N/A   Scattered Clouds
10:28 AM 26.1 °F 21.9 °F 12.9 °F 58% 30.33 in 10.0 mi West 3.5 mph - N/A   Mostly Cloudy
10:36 AM 26.1 °F 20.5 °F 12.9 °F 58% 30.33 in 10.0 mi WNW 4.6 mph - N/A   Mostly Cloudy
10:53 AM 27.0 °F - 14.0 °F 58% 30.38 in 10.0 mi Calm Calm - N/A   Overcast
11:53 AM 28.9 °F 22.8 °F 15.1 °F 56% 30.38 in 10.0 mi Variable 5.8 mph - N/A   Scattered Clouds
12:53 PM 30.9 °F 26.2 °F 15.1 °F 52% 30.37 in 10.0 mi Variable 4.6 mph - N/A   Partly Cloudy
1:53 PM 33.1 °F 27.7 °F 14.0 °F 46% 30.35 in 10.0 mi NW 5.8 mph - N/A   Partly Cloudy
2:53 PM 37.9 °F 34.4 °F 15.1 °F 39% 30.33 in 10.0 mi Variable 4.6 mph - N/A   Partly Cloudy
3:53 PM 37.9 °F - 12.9 °F 36% 30.32 in 10.0 mi North - - N/A   Clear
4:53 PM 39.9 °F 35.1 °F 14.0 °F 35% 30.30 in 10.0 mi Variable 6.9 mph - N/A   Clear
5:53 PM 39.9 °F - 12.0 °F 32% 30.29 in 10.0 mi Calm Calm - N/A   Clear
6:53 PM 39.0 °F - 12.0 °F 33% 30.28 in 10.0 mi Calm Calm - N/A   Clear
7:53 PM 36.0 °F - 9.0 °F 33% 30.28 in 10.0 mi Calm Calm - N/A   Clear
8:53 PM 36.0 °F - 9.0 °F 33% 30.27 in 10.0 mi Calm Calm - N/A   Clear
9:53 PM 35.1 °F - 8.1 °F 33% 30.28 in 10.0 mi Calm Calm - N/A   Clear
10:53 PM 33.1 °F - 9.0 °F 37% 30.29 in 10.0 mi Calm Calm - N/A   Clear
11:53 PM 33.1 °F 28.7 °F 10.0 °F 38% 30.29 in 10.0 mi SE 4.6 mph - N/A   Clear